Regional Weather Roundup
Issued by NWS

Home | Current Version | Previous Version | Text Only | Print | Product List | Glossary On
Versions: 1 2 3 4 5 6 7 8 9 10 11 12 13 14 15 16 17 18 19 20 21 22 23 24 25 26 27
000
ASUS45 KTFX 031210
RWRMT
MONTANA REGIONAL WEATHER ROUNDUP
NATIONAL WEATHER SERVICE GREAT FALLS MT
600 AM MDT TUE MAY 03 2016

NOTE: "FAIR" INDICATES FEW OR NO CLOUDS BELOW 12000 FEET WITH NO
SIGNIFICANT WEATHER AND/OR OBSTRUCTIONS TO VISIBILITY.

MTZ001>007-043-031300-
WEST OF THE DIVIDE

CITY           SKY/WX    TMP DP  RH WIND       PRES   REMARKS
KALISPELL      CLEAR     38  38 100 W7        30.12R
MISSOULA       CLEAR     40  35  83 CALM      30.18R
BUTTE          CLEAR     31  26  82 SE5       30.22S
MULLAN PASS    CLEAR     52  29  41 CALM      30.21S
$$

MTZ008-052>055-031300-
SOUTHWEST MONTANA

CITY           SKY/WX    TMP DP  RH WIND       PRES   REMARKS
BOZEMAN        CLEAR     39  29  67 S3        30.20R
DILLON         CLEAR     38  28  67 S12       30.21R WCI  30
ENNIS          CLEAR     32  23  69 CALM      30.28R
$$

MTZ009-010-012-014-046-048-049-054-031300-
EAST SLOPES AND CENTRAL MONTANA

CITY           SKY/WX    TMP DP  RH WIND       PRES   REMARKS
CUT BANK       CLEAR     38  32  79 N3        30.10R
GREAT FALLS    CLEAR     41  33  73 SW5       30.11R
MALMSTROM AFB  CLEAR     40  35  83 SW7       30.11S
HELENA         CLEAR     42  30  62 CALM      30.17R
$$

MTZ011-013-016-021-045-047-050-051-031300-
NORTH CENTRAL MONTANA

CITY           SKY/WX    TMP DP  RH WIND       PRES   REMARKS
HAVRE          CLEAR     43  39  86 CALM      30.09R
LEWISTOWN      CLEAR     39  31  72 SE7       30.14R
N BAR RANCH      N/A     41  30  65 W8        30.17S
$$

MTZ017>020-022>027-061-062-031300-
NORTHEAST MONTANA

CITY           SKY/WX    TMP DP  RH WIND       PRES   REMARKS
GLASGOW        CLEAR     41  37  86 W6        30.06R
JORDAN           N/A     44  40  85 W8        30.08R
SIDNEY         CLEAR     37  30  75 CALM      30.05R
WOLF POINT     CLEAR     40  35  83 CALM      30.06R
$$

MTZ028>42-056>058-031300-
SOUTHCENTRAL AND SOUTHEAST MONTANA

CITY           SKY/WX    TMP DP  RH WIND       PRES   REMARKS
BAKER          CLOUDY    40  33  76 CALM      30.07R
BILLINGS       PTCLDY    46  35  65 SW14      30.14R
LIVINGSTON     CLEAR     35  29  78 NW9       30.18S WCI  28
MILES CITY     CLEAR     47  40  76 W10       30.08R
$$

REGIONAL REPORTS...DAKOTAS

CITY           SKY/WX    TMP DP  RH WIND       PRES   REMARKS
WILLISTON      CLEAR     35  32  88 CALM      30.03R
MINOT          CLEAR     53  34  48 SW9       29.96R
DICKINSON      CLOUDY    35  30  82 W6        30.02R WCI  30
BEACH            N/A     39  32  75 W3        30.09R
CROSBY           N/A     48  32  53 W9        30.03S
WATFORD CITY     N/A     39  36  87 CALM      30.04R
BISMARCK       CLOUDY    42  39  89 W5        30.01R
GRAND FORKS    CLOUDY    51  39  63 W13       29.86F
FARGO          CLOUDY    48  39  71 SW10      29.91F
BUFFALO SD       N/A     44  32  62 CALM      30.00S
RAPID CITY     CLEAR     41  32  70 NW7       30.08R
$$

REGIONAL REPORTS...WYOMING/IDAHO/WASHINGTON

CITY           SKY/WX    TMP DP  RH WIND       PRES   REMARKS
GILLETTE       CLEAR     41  35  79 W10       30.14R
SHERIDAN       CLEAR     37  31  78 CALM      30.15R
CODY           CLEAR     46  28  49 S6        30.18S
YELLOWSTONE LA   N/A     25  21  85 CALM      30.34S
IDAHO FALLS    CLEAR     34  27  75 N3        30.23R
SALMON         CLEAR     36  27  69 CALM      30.21R
BOISE          CLEAR     53  31  42 SE9       30.11R
SPOKANE        CLEAR     52  43  71 E3        30.07R
$$

REGIONAL REPORTS...ALBERTA

CITY           SKY/WX    TMP DP  RH WIND       PRES   REMARKS
EDMONTON       CLEAR     59  36  41 S7        29.94F
CALGARY        PTCLDY    46  32  57 S7        30.03R
LETHBRIDGE     PTCLDY    45  30  57 SW8       30.03S
MEDICINE HAT   CLEAR     45  39  81 S3        30.04S
WATERTON GATE    N/A     52  32  46 S12         N/A
CARDSTON         N/A     48  30  49 SW7         N/A
MILK RIVER       N/A     41  34  75 W2          N/A
ONEFOUR          N/A     48  37  66 E7          N/A
$$

REGIONAL REPORTS...SASKATCHEWAN

CITY           SKY/WX    TMP DP  RH WIND       PRES   REMARKS
SWIFT CURRENT  CLEAR     48  37  66 SW13      30.05R
REGINA         PTCLDY    41  32  70 CALM      30.03R
SASKATOON      MOCLDY    43  39  87 E7        30.04R
CYPRESS HILLS    N/A     54  32  43 W2          N/A
VAL MARIE        N/A     36  32  87 NE5         N/A
ROCKGLEN         N/A     48  32  53 NW5         N/A
$$




USA.gov is the U.S. government's official web portal to all federal, state and local government web resources and services.